FLOCK 2K-29

Last updated on Wed Feb 14 2018 16:20:53 GMT+0000 (Coordinated Universal Time)

1 42871U 17042AY 18044.78598092 .00007042 00000-0 20481-3 0 9992 2 42871 96.9927 307.6419 0010604 186.7560 173.3543 15.35677437 32694
UTC large
Height (km)
Speed (km/s)
/
Latitude / Longitude
Inclination (degrees)
Orbital Period (minutes)
Azimuth
Elevation
Range (km)
Doppler Factor

Next 0 passes for location: London (51.5072 / 0.1276)

Sorry there are no passes over London.